Location: Carnetin
(48.9010°N, 2.7059°E)
Time: 15:52:25
(UTC+00:00)

Cosmos 1605 Rocket - Pass Details

Date: 24 October 2021
Orbit: 945 x 1005 km, 82.9° (Epoch: 27 November)

Event Time Altitude Azimuth Distance (km) Brightness Sun altitude
Rises 18:41:12 0° 194° (SSW) 3,667 7.1 -20.2°
Reaches altitude 10° 18:43:42 10° 196° (SSW) 2,732 6.5 -20.6°
Maximum altitude 18:49:58 73° 281° (W) 1,042 4.2 -21.6°
Drops below altitude 10° 18:56:23 10° 6° (N) 2,785 6.4 -22.6°
Sets 18:58:57 0° 9° (N) 3,743 7.1 -23.1°
